Погода Александровское

Погода Александровское : погода сейчас, прогноз погоды и архив. Всё, что Вы хотите узнать о погоде Александровское!

Хотите узнать прогноз погоды Александровское? Тогда Вам сюда: Погода Александровское

Поиск расширенной информации на нашем сайте:

Другие новости

Новости СМИ2

Главная страница сайта

Новости сайта

02.10.2013

Напоминаем, что на нашем новом сайте вы можете получить высокодетализированные прогнозы погоды по пунктам России, СНГ и мира (включающие важные для авиации метеовеличины, такие как направление и скорость ветра, видимость, явления погоды, количество и форма облачности, нижняя и верхняя граница облачности), а также ознакомиться с разнообразными материалами по авиационной метеорологии и подборкой полезных ссылок на эту тему.

Сайт Метеоцентр.Азия посвящён разработке технологий оптимизации авиаметеорологического обслуживания, включая проектирование и перспективное создание нескольких автоматизированных авиаметеорологических систем:
- система выпуска высокодетальных прогностических карт явлений погоды для нижнего воздушного пространства по России и ближнему зарубежью;
- система верификации прогнозов TAF (выпускаемых синоптиками официальных АМСГ РФ и ближнего зарубежья) и AUTOTAF (выпускаемых сайтом Метеоцентр.Азия) - выявление ошибок, онлайн-сопоставление с фактической погодой METAR, автоматическое внесение коррективов в прогнозы при резком отклонении фактической погоды от прогноза, подсчёт оправдываемости прогнозов по элементам и в целом;
- система обработки, анализа и отображения авиаметеорологической информации для применения провайдерами метеорологической информации.

Рекомендуем: Пансионаты для отдыха с детьми родители с детьми.

Погода Александровское - сегодня

Время (UTC), дата Ветер
(°,м/с) 
Видим.   Явления Облачность Т
(°С)
Тd
(°С)
f(%) Тe
(°С)
Pmin
(гПа)
dP
(гПа)
Po
(мм)
O2
(г/м3)
Тmin Tmax R s Состояние
почвы
12 21.04.17 090 (В) 20000 м  в посл. час ливневой снег  10/10 1500 м кучево-дожд. 
[Cb calv]
-0.2 -7.1 60 -3  1020.4  -2.6  761  307    +0.2  0.0     
15 21.04.17 110 (В) 6-10{10}  20000 м    10/8 1000 м кучево-дожд., верхняя 
[Cb calv|Ci sp]
-0 -6 64 -3  1016.8  -3.5  758  306           
18 21.04.17 110 (В) 5{10}  50000 м    9/6 1000 м кучево-дожд., средняя 
[Cb calv|Ac trans]
+0.1 -4.8 70 -3  1014.3  -2.5  756  305           
21 21.04.17 130 (ЮВ) 50000 м    10/3 1000 м верхняя 
[Sc|Ci fib]
+0.2 -4.2 72 -2  1011.9  -2.4  754  304           
00 22.04.17 130 (ЮВ) 20000 м    10/0 средняя, верхняя 
[Ac trans|Ci fib]
+1.5 -4.3 65 1010.3  -1.6  753  302  -0.4      мокрый или
старый снег
50-90% 
03 22.04.17 150 (ЮВ) 6-10{10}  20000 м    10/0 средняя, верхняя 
[Ac trans|Ci fib]
+6.1 -4.6 46 +4  1008.9  -1.2  752  297           
06 22.04.17 120 (ЮВ) 5-10{11}  20000 м    10/0 верхняя 
[Ci fib]
+9.6 -3.5 39 +8  1006.8  -2.1  751  293           
09 22.04.17 110 (В) 5-10{12}  20000 м    10/0 верхняя 
[Ci sp]
+10.6 -1.8 42 +9  1005.5  -1.2  750  291           
12 22.04.17 110 (В) 3{10}  20000 м    10/6 800 м верхняя 
[Sc|Ci sp]
+7.1 -1.4 55 +6  1006.1  0.5  750  295    +11.7       
15 22.04.17 290 (З) 10 км  слаб. дождь  10/10 1260 м 
[Sc]
+2 +0.9 92 +1  1008.6  2.4  752  301           
18 22.04.17 290 (З) 29000 м  слаб. ливневой снег{дождь}  10/10 800 м кучево-дожд. 
[Cb calv]
+0 -0.9 94 -2  1011.9  3.2  754  304           
21 22.04.17 270 (З) 50000 м  {ливн. осадки}  3/3 1000 м 
[Sc]
-0.2 -1.3 92 -2  1013.7  1.8  756  305           
00 23.04.17 260 (З) 20000 м  {ливн. осадки}  1/0 средняя 
[Ac trans]
-1.5 -2.7 92 -2  1016.2  2.4  758  307  -2    0.9  мокрый или
старый снег
10-40% 
03 23.04.17 290 (З) 20000 м    3/0 верхняя 
[Ci fib]
+2.8 -2 71 +2  1018.2  2.1  759  303           
06 23.04.17 310 (СЗ) 20000 м    9/0 верхняя 
[Ci sp]
+5.6 -4.5 48 +6  1018.8  0.7  760  300           
09 23.04.17 350 (С) 20000 м    8/0 верхняя 
[Ci fib]
+6.9 -6.5 38 +7  1018.6  -0.2  759  299           
12 23.04.17 110 (В) 20000 м    10/0 средняя 
[As trans]
+5.7 -6.2 42 +7  1018.1  -0.5  759  300    +7       
15 23.04.17 110 (В) 20000 м    9/1 1000 м средняя 
[Sc|Ac trans]
+2 -5.1 59 +3  1016.8  -1.4  758  304           
18 23.04.17 050 (СВ) 50000 м    10/1 600 м средняя, верхняя 
[Sc|Ac trans|Ci fib]
+0.4 -4.3 71 +1  1016  -0.8  757  305           
21 23.04.17 100 (В) 50000 м    5/5 600 м 
[Sc]
-0.5 -4.4 75 1013.6  -2.5  756  305           
00 24.04.17 060 (СВ) 20000 м    3/0 верхняя 
[Ci fib]
-1.1 -4.2 79 -2  1012.5  -1  755  306  -1.3      мокрый или
старый снег
10-40% 
03 24.04.17 080 (В) 20000 м    9/9 1350 м 
[Sc]
+3.2 -2.4 67 +3  1011.7  -0.7  754  301           
06 24.04.17 070 (В) 20000 м    1/0 средняя 
[Ac trans]
+8.4 -0.1 55 +8  1011.1  -0.5  754  295           
09 24.04.17 220 (ЮЗ) 20000 м    9/4 1500 м средняя 
[Sc|Ac trans]
+12.4 -1.6 38 +13  1011.3  0.3  754  291           
12 24.04.17 210 (ЮЗ) 20000 м    5/5 600 м 
[Cu Sc]
+12.5 -2.5 35 +12  1013.1  1.8  755  291    +13.1       
Время (UTC), дата Ветер
(°,м/с) 
Видим.   Явления Облачность Т
(°С)
Тd
(°С)
f(%) Тe
(°С)
Pmin
(гПа)
dP
(гПа)
Po
(мм)
O2
(г/м3)
Тmin Tmax R s Состояние
почвы

Для получения пояснительной информации подведите курсор к названию столбца.

ПОГОДА Александровское - архив

Всё, что Вы хотите узнать о погоде Александровское - удобно и подробно!

Выберите нужную дату (начиная с 1 января 2015* года) и нажмите кнопку "Найти".
Будут отображены архивные сводки погоды по пункту Александровское, начиная с указанной даты.


Отображать данные в формате CSV (для использования в таблицах Excel)


Внимание! Наш архив погоды предназначен исключительно для личного некоммерческого использования в познавательных целях. Если Вам необходимы официальные справки о состоянии погоды (для производственных, юридических, коммерческих и т.п. целей), обращайтесь в органы Росгидромета.

*Примечание: данная дата относится к архиву по метеостанциям СССР (Россия, СНГ, Балтия).
Архив по метеостанциям Зарубежной Европы и Азии (кроме Китая) хранится 10 дней, по другим регионам земного шара (Китай, Африка, Америка, Австралия, Океания) - 1 день.

Александровское - район местоположения метеостанции


Название, широта, долгота, высота метеостанции:
Александровское 60.4°ш. 77.9°д. 48 м над ур. моря [Российская Федерация]

Дополнительная информация

В oтличие oт бoльшинства пoгoдных сайтoв мы публикуем пoдрoбную метеoинфoрмацию в детальнoм прoфессиoнальнoм фoрмате.

Характеристики температуры и влажнoсти вoздуха измеряются на высoте 2 м в тени вдали oт зданий и деревьев.
Скoрoсть ветра измеряется на высoте 10 м (на урoвне рoста челoвека скoрoсть ветра ниже в 1.5-2 раза). Если метеoстанция нахoдится в гoрoде или в лесу, тo скoрoсть ветра занижена на 2-4 м/с пo сравнению с oткрытым местoм. Скoрoсть ветра над акватoриями крупных рек и oзёр, а также на вершинах хoлмoв на 2-5 м/с выше, чем в oбычных услoвиях.
Атмoсфернoе давление в разных тoчках местнoсти мoжет значительнo oтличаться oт давления на метеoстанции, в зависимoсти oт услoвий рельефа (при пoдъёме на 10 м давление пoнижается примернo на 1 мм рт.ст.).